EW6336 Almeria ES current weather conditions

sailwx.info

Wind from 063

Air temperature 13.3° C
Dewpoint 9.0° C

Last reported at 2020-Jan-17 19:00 UTC.
Time now 2020-Jan-17 19:21 UTC

Location: N 36°30' W 002°16'.
View on Google Maps.

See reports from other nearby stations

  
Tides and Currents Weather Stations Pressure Air Temp Water Temp Dewpoint Dewpoint Depression Visibility Wind Speed Wind Dir Waves Ship Positions
date/time (UTC)wind fromknots sea level pressurealtimeterstation pressurevisibilityair tempwater tempwave heightnotes
2020-Jan-17 19:00 063 13.3
2020-Jan-17 18:50 065 13.3
2020-Jan-17 18:40 065 13.3
2020-Jan-17 18:30 068 13.3
2020-Jan-17 18:20 098 13.9
2020-Jan-17 18:10 217 13.9
2020-Jan-17 18:00 217 13.9
2020-Jan-17 17:50 14.4
2020-Jan-17 17:40 14.4
2020-Jan-17 17:30 15.0
2020-Jan-17 17:20 217 15.0
2020-Jan-17 17:10 221 15.0
2020-Jan-17 17:00 15.0
2020-Jan-17 16:50 15.0
2020-Jan-17 16:40 241 15.6
2020-Jan-17 16:30 236 15.6
2020-Jan-17 16:20 238 1 gusting 3 15.6
2020-Jan-17 16:10 148 0 gusting 4 16.1
2020-Jan-17 16:00 141 0 gusting 3 16.1
2020-Jan-17 15:50 139 0 gusting 3 16.1
2020-Jan-17 15:40 113 0 gusting 3 16.1
2020-Jan-17 15:30 144 1 gusting 4 16.1
2020-Jan-17 15:20 117 0 gusting 2 16.7
2020-Jan-17 15:10 138 1 gusting 3 16.7
2020-Jan-17 15:00 142 1 gusting 4 16.7
2020-Jan-17 14:50 164 16.7
2020-Jan-17 14:40 140 1 gusting 4 16.7
2020-Jan-17 14:30 140 2 gusting 6 17.2
2020-Jan-17 14:20 139 1 gusting 5 17.2
2020-Jan-17 14:10 139 2 gusting 5 17.2
2020-Jan-17 14:00 103 0 gusting 2 17.2
2020-Jan-17 13:50 145 1 gusting 4 17.2
2020-Jan-17 13:40 133 0 gusting 4 17.2
2020-Jan-17 13:30 132 1 gusting 2 17.2
2020-Jan-17 13:10 151 16.1
2020-Jan-17 13:00 244 15.6
2020-Jan-17 12:50 242 1 gusting 6 15.6
2020-Jan-17 12:40 207 0 gusting 3 16.1
2020-Jan-17 12:31 199 0 gusting 6 15.6
2020-Jan-17 12:21 134 2 gusting 5 15.6
2020-Jan-17 12:11 240 1 gusting 5 15.6
2020-Jan-17 12:00 171 1 gusting 3 15.6
2020-Jan-17 11:51 162 1 gusting 6 15.6
2020-Jan-17 11:40 246 15.6
2020-Jan-17 11:30 195 0 gusting 3 15.6
2020-Jan-17 11:21 216 0 gusting 3 15.6
2020-Jan-17 11:11 156 2 gusting 6 15.6
2020-Jan-17 11:00 140 1 gusting 4 15.6
2020-Jan-17 10:50 180 15.6
2020-Jan-17 10:40 142 15.6
2020-Jan-17 10:30 028 15.6
2020-Jan-17 10:20 028 15.0
2020-Jan-17 10:10 027 14.4
2020-Jan-17 10:00 026 14.4
2020-Jan-17 09:50 027 14.4
2020-Jan-17 09:40 027 13.9
2020-Jan-17 09:30 027 13.3
2020-Jan-17 09:20 026 12.2
2020-Jan-17 09:10 026 11.7
2020-Jan-17 09:00 11.1
2020-Jan-17 08:51 026 10.6
2020-Jan-17 08:40 026 10.0
2020-Jan-17 08:30 030 9.4
2020-Jan-17 08:20 327 9.4
2020-Jan-17 08:10 321 8.9
2020-Jan-17 08:00 321 8.9
2020-Jan-17 07:50 321 8.3
2020-Jan-17 07:40 8.3
2020-Jan-17 07:30 320 0 gusting 2 8.3
2020-Jan-17 07:20 321 8.3
2020-Jan-17 07:10 321 8.3
2020-Jan-17 07:00 8.3
2020-Jan-17 06:50 8.3
2020-Jan-17 06:40 321 8.3
2020-Jan-17 06:32 316 8.3
2020-Jan-17 06:20 317 8.3
2020-Jan-17 06:10 322 8.3
2020-Jan-17 06:00 341 8.3
2020-Jan-17 05:50 343 8.3
2020-Jan-17 05:40 8.3
2020-Jan-17 05:30 327 8.3
2020-Jan-17 05:20 329 7.8
2020-Jan-17 05:10 7.8
2020-Jan-17 05:00 8.3
2020-Jan-17 04:50 329 8.3
2020-Jan-17 04:40 329 8.3
2020-Jan-17 04:30 329 7.8
2020-Jan-17 04:20 329 7.8
2020-Jan-17 04:10 323 7.8
2020-Jan-17 04:00 074 7.8
2020-Jan-17 03:50 314 7.8
2020-Jan-17 03:40 7.8
2020-Jan-17 03:30 314 7.8
2020-Jan-17 03:20 005 7.8
2020-Jan-17 03:10 303 8.3
2020-Jan-17 03:00 302 8.3
2020-Jan-17 02:50 302 8.3
2020-Jan-17 02:40 329 8.3
2020-Jan-17 02:30 8.3
2020-Jan-17 02:20 031 8.3
2020-Jan-17 02:10 333 8.3
2020-Jan-17 02:00 333 8.3
2020-Jan-17 01:50 8.3
2020-Jan-17 01:40 8.3
2020-Jan-17 01:30 8.3
2020-Jan-17 01:20 8.3
2020-Jan-17 01:10 8.3
2020-Jan-17 01:00 327 8.9
2020-Jan-17 00:50 312 8.9
2020-Jan-17 00:40 8.9
2020-Jan-17 00:30 8.9
2020-Jan-17 00:20 312 8.9
2020-Jan-17 00:10 8.9
2020-Jan-17 00:00 312 8.9
2020-Jan-16 23:50 013 9.4
2020-Jan-16 23:40 9.4
2020-Jan-16 23:30 9.4
2020-Jan-16 23:20 10.0
2020-Jan-16 23:10 10.0
2020-Jan-16 23:00 10.0
2020-Jan-16 22:50 10.6
2020-Jan-16 22:40 10.6
2020-Jan-16 22:30 10.6
2020-Jan-16 22:20 10.6
2020-Jan-16 22:10 10.6
2020-Jan-16 22:00 10.6
2020-Jan-16 21:50 10.6
2020-Jan-16 21:40 10.6
2020-Jan-16 21:30 058 11.1
2020-Jan-16 21:20 058 11.1
2020-Jan-16 21:10 11.1
2020-Jan-16 21:00 058 11.7
2020-Jan-16 20:50 058 11.7
2020-Jan-16 20:40 064 11.7
2020-Jan-16 20:30 060 12.2
2020-Jan-16 20:20 053 12.2
2020-Jan-16 20:10 12.2
2020-Jan-16 20:00 12.2
2020-Jan-16 19:50 052 12.8
2020-Jan-16 19:40 044 0 gusting 3 12.8
2020-Jan-16 19:30 259 13.3
2020-Jan-16 19:20 260 13.3
2020-Jan-16 19:10 226 13.3
2020-Jan-16 19:00 205 13.3
2020-Jan-16 18:50 209 1 gusting 4 13.3
2020-Jan-16 18:40 235 1 gusting 4 13.3
2020-Jan-16 18:30 222 13.3
2020-Jan-16 18:20 218 0 gusting 4 13.9
2020-Jan-16 18:10 179 1 gusting 5 13.9
2020-Jan-16 18:00 210 1 gusting 6 13.9
2020-Jan-16 17:50 172 0 gusting 5 13.9
2020-Jan-16 17:40 165 1 gusting 4 13.9
2020-Jan-16 17:30 236 0 gusting 3 13.9
2020-Jan-16 17:20 197 0 gusting 3 14.4
2020-Jan-16 17:10 193 1 gusting 5 14.4
2020-Jan-16 17:00 202 1 gusting 6 14.4
2020-Jan-16 16:50 188 15.0
2020-Jan-16 16:40 221 0 gusting 3 15.0
2020-Jan-16 16:30 170 1 gusting 5 15.0
2020-Jan-16 16:20 230 2 gusting 6 14.4
2020-Jan-16 16:10 216 2 gusting 6 15.0
2020-Jan-16 16:00 197 2 gusting 7 15.0
2020-Jan-16 15:50 206 2 gusting 6 15.0
2020-Jan-16 15:40 212 2 gusting 7 15.0
2020-Jan-16 15:30 197 3 gusting 7 15.0
2020-Jan-16 15:20 214 2 gusting 6 15.0
2020-Jan-16 15:10 226 2 gusting 6 15.0
2020-Jan-16 15:00 214 1 gusting 5 15.6
2020-Jan-16 14:50 218 1 gusting 4 15.6
2020-Jan-16 14:40 221 1 gusting 6 15.6
2020-Jan-16 14:30 215 1 gusting 6 15.6
2020-Jan-16 14:20 218 2 gusting 6 15.6
2020-Jan-16 14:10 195 0 gusting 4 15.6
2020-Jan-16 14:00 210 2 gusting 7 15.0
2020-Jan-16 13:50 216 2 gusting 7 15.0
2020-Jan-16 13:40 220 0 gusting 5 15.0
2020-Jan-16 13:30 223 2 gusting 6 15.0
2020-Jan-16 13:20 194 2 gusting 6 15.0
2020-Jan-16 13:10 212 2 gusting 6 15.0
2020-Jan-16 13:00 196 2 gusting 6 15.0
2020-Jan-16 12:50 215 0 gusting 5 15.0
2020-Jan-16 12:40 194 1 gusting 5 14.4
2020-Jan-16 12:30 241 2 gusting 8 14.4
2020-Jan-16 12:20 192 1 gusting 5 15.0
2020-Jan-16 12:10 201 1 gusting 6 14.4
2020-Jan-16 12:00 228 1 gusting 6 14.4
2020-Jan-16 11:50 216 3 gusting 6 14.4
2020-Jan-16 11:40 208 2 gusting 6 14.4
2020-Jan-16 11:30 215 1 gusting 5 14.4
2020-Jan-16 11:20 204 1 gusting 5 14.4
2020-Jan-16 11:10 200 1 gusting 4 14.4
2020-Jan-16 11:00 210 1 gusting 4 14.4
2020-Jan-16 10:50 235 0 gusting 4 14.4
2020-Jan-16 10:40 203 0 gusting 4 14.4
2020-Jan-16 10:30 061 0 gusting 2 14.4
2020-Jan-16 10:20 058 14.4
2020-Jan-16 10:10 059 13.9
2020-Jan-16 10:00 059 13.9
2020-Jan-16 09:50 059 13.9
2020-Jan-16 09:40 13.3
2020-Jan-16 09:30 12.8
2020-Jan-16 09:20 12.2
2020-Jan-16 09:10 11.7
2020-Jan-16 09:00 11.1
2020-Jan-16 08:50 10.0
2020-Jan-16 08:40 9.4
2020-Jan-16 08:30 8.9
2020-Jan-16 08:20 8.3
2020-Jan-16 08:10 7.8
2020-Jan-16 08:00 7.2
2020-Jan-16 07:50 7.2
2020-Jan-16 07:40 7.2
2020-Jan-16 07:30 7.2
2020-Jan-16 07:20 7.2
2020-Jan-16 07:10 7.2
2020-Jan-16 07:00 059 7.2
2020-Jan-16 06:50 7.8
2020-Jan-16 06:40 7.8
2020-Jan-16 06:30 7.8
2020-Jan-16 06:20 7.8
2020-Jan-16 06:10 7.8
2020-Jan-16 06:00 7.8
2020-Jan-16 05:50 7.8
2020-Jan-16 05:40 8.3
2020-Jan-16 05:30 7.8
2020-Jan-16 05:20 7.8
2020-Jan-16 05:10 8.3
2020-Jan-16 05:00 8.3
2020-Jan-16 04:50 8.3
2020-Jan-16 04:40 8.3
2020-Jan-16 04:30 8.3
2020-Jan-16 04:20 8.3
2020-Jan-16 04:10 8.3
2020-Jan-16 04:00 8.3
2020-Jan-16 03:50 8.3
2020-Jan-16 03:40 8.3
2020-Jan-16 03:30 8.9
2020-Jan-16 03:20 059 8.9
2020-Jan-16 03:10 8.9
2020-Jan-16 03:00 8.9
2020-Jan-16 02:50 059 8.3
2020-Jan-16 02:40 8.9
2020-Jan-16 02:30 8.9
2020-Jan-16 02:20 8.9
2020-Jan-16 02:10 8.9
2020-Jan-16 02:00 8.9
2020-Jan-16 01:50 9.4
2020-Jan-16 01:40 059 9.4
2020-Jan-16 01:30 9.4
2020-Jan-16 01:20 9.4
2020-Jan-16 01:10 9.4
2020-Jan-16 01:00 9.4
2020-Jan-16 00:50 9.4
2020-Jan-16 00:40 9.4
2020-Jan-16 00:30 9.4
2020-Jan-16 00:20 9.4
2020-Jan-16 00:10 9.4
2020-Jan-16 00:00 9.4
2020-Jan-15 23:50 9.4
2020-Jan-15 23:40 9.4
2020-Jan-15 23:30 9.4
2020-Jan-15 23:20 9.4
2020-Jan-15 23:10 10.0
2020-Jan-15 23:00 10.0
2020-Jan-15 22:50 10.0
2020-Jan-15 22:40 10.0
2020-Jan-15 22:30 10.0
2020-Jan-15 22:20 10.0
2020-Jan-15 22:10 10.6
2020-Jan-15 22:00 10.6
2020-Jan-15 21:50 10.6
2020-Jan-15 21:40 10.6
2020-Jan-15 21:30 10.6
2020-Jan-15 21:20 11.1
2020-Jan-15 21:10 11.1
2020-Jan-15 21:00 11.1
2020-Jan-15 20:50 11.1
2020-Jan-15 20:40 11.1
2020-Jan-15 20:30 11.1
2020-Jan-15 20:20 11.7
2020-Jan-15 20:10 11.7
2020-Jan-15 20:00 059 11.7
2020-Jan-15 19:50 064 11.7
2020-Jan-15 19:40 064 12.2
2020-Jan-15 19:30 047 0 gusting 3 12.2
2020-Jan-15 19:20 257 12.2
2020-Jan-15 19:10 12.8
2020-Jan-15 19:00 12.8